Theta_e
308 309 308 309 309 308 308 309 309 308 311 312 309 309 312 312 306 303 314 314 310 312 315 319 321 322 323 322 326 327 328 328 330 330 330 330 331 332 333 334 335 335 335 336 336 337 339 340 341 343 343 345 347 348 349 350 352 353 355 353 353 355 355 356 357 359 360 361 362 362 364 363 363 363 364 364 363 363 363 362 362 362 363 363 363 362 362
308 309 310 310 308 308 310 310 310 311 311 312 312 312 313 312 310 312 312 315 314 315 317 319 321 323 323 324 326 327 327 325 327 328 329 328 330 331 332 333 334 334 335 335 335 336 337 338 339 342 343 343 345 347 348 350 351 353 352 351 351 351 352 354 357 356 359 360 360 359 357 359 362 363 362 362 362 360 360 361 362 363 364 364 364 363 361
306 309 311 310 309 309 309 311 312 312 311 311 313 313 314 314 311 311 311 313 313 319 322 322 323 324 325 324 324 324 325 325 325 326 327 329 330 331 332 332 333 334 334 334 335 335 336 337 339 341 342 344 345 346 348 349 351 352 352 349 349 349 350 352 355 358 354 359 360 357 357 359 359 361 361 360 360 359 359 360 360 363 363 364 364 363 363
304 309 309 309 311 311 310 310 310 311 310 309 311 311 314 312 310 312 313 311 311 320 322 322 324 323 324 323 323 323 322 323 324 325 327 328 329 329 331 332 333 333 333 333 334 334 335 337 338 341 342 342 343 344 348 349 350 351 351 350 348 348 350 352 353 354 356 356 359 358 358 357 359 359 360 360 360 359 359 359 360 361 361 363 366 367 365
303 310 308 308 309 309 306 308 311 312 312 312 312 315 318 316 315 311 308 311 320 321 323 319 320 319 319 320 321 322 322 324 324 325 326 327 328 328 330 330 331 332 333 333 334 334 336 337 338 341 343 343 343 345 347 348 350 350 351 351 350 350 351 352 353 355 356 356 357 358 358 359 360 360 358 358 359 359 358 360 361 359 361 363 363 364 363
304 309 309 309 306 299 302 315 316 314 313 314 311 312 314 317 318 314 316 318 320 321 320 319 319 319 319 320 324 327 325 323 323 324 326 328 328 329 330 330 331 332 332 333 334 335 336 338 340 343 344 344 346 347 348 350 349 349 350 351 351 351 352 353 354 355 355 356 356 357 358 358 359 360 358 355 356 360 361 361 360 358 359 361 361 361 361
303 309 308 303 299 301 317 322 322 322 323 322 318 317 318 319 321 320 318 319 320 322 322 321 321 322 321 322 323 326 325 325 324 325 326 327 327 328 329 330 330 332 333 333 334 335 336 338 341 342 342 345 345 345 347 346 347 348 350 351 351 351 351 353 353 354 354 355 356 357 358 357 358 358 358 355 353 359 361 361 359 357 357 357 358 359 359
309 307 305 297 300 310 318 321 322 326 323 321 319 315 318 319 319 320 319 320 321 322 323 323 323 323 323 323 324 326 328 327 325 324 323 325 327 327 329 330 331 332 332 332 333 335 337 338 340 342 342 344 344 344 346 345 346 348 349 350 350 351 352 352 353 354 354 354 353 355 356 357 353 352 354 354 353 357 361 363 363 361 359 359 358 358 359
302 304 304 304 312 309 314 315 319 319 316 318 314 308 312 319 321 320 319 320 321 322 322 322 322 324 322 319 321 326 326 325 325 325 325 326 327 328 330 331 331 332 333 333 334 335 336 338 341 341 343 344 344 343 344 344 346 347 348 349 350 350 351 352 352 354 354 354 354 354 355 355 355 353 352 353 355 351 354 359 360 359 358 359 360 359 358
308 303 303 305 304 300 308 322 326 326 327 325 323 316 311 318 321 322 320 320 320 321 322 322 323 324 317 315 317 325 325 324 323 324 324 326 328 329 330 332 332 332 333 334 335 334 336 340 341 342 343 343 343 343 344 345 346 346 346 345 344 347 348 348 353 354 354 355 355 355 355 353 352 353 354 353 352 351 355 357 358 357 357 356 358 358 357
308 305 301 301 300 305 316 319 324 327 326 323 324 314 307 318 321 322 320 319 319 320 320 320 323 320 312 312 318 323 322 323 325 324 324 325 326 328 330 329 330 331 333 334 334 336 337 337 340 342 343 343 343 342 344 346 346 345 345 346 344 341 344 346 349 352 354 354 355 355 354 354 351 350 353 353 352 355 358 357 356 356 356 355 355 357 358
307 306 303 301 306 306 318 323 323 324 327 322 319 303 303 317 322 320 320 319 320 321 322 322 320 316 311 313 319 323 325 326 326 326 325 325 326 329 330 330 332 333 335 335 334 335 336 338 341 342 342 341 343 344 345 346 345 344 345 347 345 344 345 348 350 352 348 352 354 354 357 357 357 355 357 356 356 355 356 356 356 356 355 355 353 352 355
305 305 304 306 309 319 321 321 323 324 325 320 306 300 311 319 322 322 323 321 322 323 322 323 317 321 322 323 326 327 328 328 328 328 328 328 328 329 330 330 333 333 333 333 333 336 339 341 341 342 342 342 342 344 345 344 343 345 345 346 345 346 350 351 352 353 354 350 349 354 356 356 355 357 358 359 359 353 354 357 355 354 354 354 352 352 353
305 307 304 305 309 319 322 323 325 325 317 306 304 318 323 323 323 324 323 322 323 324 324 323 322 323 325 327 327 327 327 326 328 328 328 328 329 331 332 334 333 332 332 334 337 337 339 340 342 343 343 342 342 344 344 342 344 345 347 345 346 346 347 347 344 349 353 353 351 350 354 354 354 354 357 358 355 353 353 353 352 351 350 350 352 353 355
309 309 305 303 297 317 324 323 322 324 313 312 321 324 324 323 322 321 323 324 324 324 323 324 324 324 325 325 325 326 327 327 327 327 327 327 327 328 330 331 333 332 332 334 335 339 339 342 344 345 345 344 344 343 341 342 344 346 346 346 344 344 344 344 344 341 347 350 350 351 352 353 354 356 357 356 356 356 354 353 352 350 350 350 351 353 351
305 305 303 302 312 321 325 321 314 320 320 325 326 322 320 326 324 323 323 324 326 326 325 324 325 325 325 326 326 326 326 325 326 325 326 327 328 329 331 331 332 334 334 336 338 342 342 344 345 345 344 342 341 340 341 345 346 347 346 343 342 342 343 344 343 343 343 348 349 349 350 352 355 355 354 353 352 354 352 353 351 350 348 348 348 347 348
310 308 312 319 322 323 325 322 322 325 328 330 327 325 323 322 323 326 324 324 325 326 326 326 325 324 325 325 325 323 323 323 323 323 324 326 327 330 330 332 333 335 336 337 339 340 341 343 345 345 345 342 342 343 344 347 349 346 343 340 340 341 343 343 341 344 348 349 349 349 350 350 350 353 353 353 350 350 352 352 351 349 347 345 343 343 343
320 321 320 323 323 322 324 323 325 325 328 328 326 324 323 325 327 326 325 325 326 326 327 325 325 325 326 325 325 324 324 325 326 328 328 329 330 330 331 333 336 340 340 340 339 338 340 343 343 342 341 342 341 342 345 346 346 345 341 337 337 338 341 342 342 343 346 348 348 349 349 349 350 351 349 350 349 349 352 352 351 349 346 345 344 342 341
310 304 323 320 320 323 323 323 325 328 330 328 327 326 327 327 327 327 327 328 328 328 328 326 326 326 327 325 324 324 323 324 326 327 328 328 329 330 331 335 338 338 338 335 335 336 337 340 342 343 342 341 342 342 341 341 343 343 342 340 337 338 340 342 344 345 348 349 350 351 352 349 348 347 348 349 346 346 348 347 346 347 346 346 345 343 342
314 313 322 323 324 327 328 326 324 324 327 329 329 328 329 330 332 330 328 328 327 328 326 327 326 324 323 322 321 321 322 324 326 327 328 329 330 333 335 338 339 338 337 337 337 336 334 339 341 342 341 339 337 339 339 343 344 343 342 341 340 339 341 340 344 346 347 344 346 348 347 346 346 347 349 347 346 345 345 346 344 344 345 344 343 342 341
316 319 321 321 325 324 325 326 327 327 326 326 329 330 330 330 329 329 329 329 328 328 327 328 326 324 324 323 323 323 326 326 327 328 328 331 333 335 336 337 338 336 337 336 336 336 336 339 340 340 337 340 338 338 339 341 344 343 341 341 338 339 340 341 345 347 348 346 346 344 344 340 336 332 334 343 346 348 349 350 349 346 346 344 344 346 343
309 310 314 319 313 312 319 323 325 326 328 329 328 329 329 329 328 329 328 328 329 329 329 328 326 323 324 326 328 326 327 327 329 331 333 334 334 334 336 337 337 337 337 336 335 335 337 338 339 340 340 336 339 340 340 341 341 343 342 341 339 339 340 343 345 344 345 346 346 345 342 337 333 329 316 305 310 336 346 331 317 319 331 348 347 345 343
309 316 320 324 322 320 321 322 324 326 327 327 327 327 327 327 328 330 329 328 328 329 328 329 327 327 327 328 328 328 327 329 331 333 333 333 332 332 335 335 336 337 337 337 337 337 338 339 339 339 339 340 338 339 341 342 341 343 342 341 339 340 340 342 343 342 343 343 341 340 338 337 334 334 331 324 303 300 310 320 309 303 306 314 325 332 344
319 321 321 323 322 319 322 325 326 326 329 327 325 326 327 328 329 330 329 329 328 327 328 328 329 329 329 328 328 328 329 331 333 333 333 335 335 335 336 336 336 336 336 337 337 337 337 338 338 340 340 340 338 339 339 340 346 344 343 343 341 340 341 344 345 344 343 339 337 335 334 336 336 335 333 330 323 305 300 303 303 301 301 304 308 313 318
320 330 329 328 326 325 326 329 329 329 330 328 325 326 328 328 328 330 329 328 328 327 327 326 329 330 329 329 329 330 331 333 333 333 333 333 334 333 335 336 336 336 336 336 336 337 337 336 337 338 339 340 338 338 340 340 343 344 343 343 344 342 341 344 345 345 343 339 336 336 335 335 336 335 333 332 328 323 316 303 300 299 299 301 305 307 308
326 331 331 329 329 328 329 327 328 329 330 329 328 328 330 330 331 329 328 328 328 329 328 328 328 330 331 330 330 331 332 332 331 331 332 333 333 333 334 334 333 334 334 334 335 336 337 337 336 338 337 339 340 340 340 343 345 343 343 344 345 344 344 345 346 346 345 341 337 335 337 337 337 337 337 335 331 327 325 325 323 312 304 300 300 303 304
329 331 329 326 324 325 327 324 323 329 330 329 327 328 328 329 330 330 330 330 330 330 330 330 330 331 332 331 331 331 330 330 331 331 333 333 333 331 333 334 334 334 333 333 334 335 335 335 335 336 337 339 343 341 340 340 342 342 343 343 344 343 343 344 345 344 344 344 340 337 336 337 337 337 337 337 333 331 330 329 326 323 321 317 305 302 309
331 331 328 323 321 323 327 329 329 329 329 328 329 327 326 327 327 328 328 328 328 329 330 331 330 330 329 330 329 329 330 330 329 329 330 331 332 332 333 333 333 332 332 332 332 334 335 335 335 335 336 340 342 342 342 340 341 341 342 343 343 344 344 343 342 342 342 343 341 339 337 337 339 338 336 334 334 335 333 332 329 325 321 317 313 307 303
331 331 332 330 331 331 331 330 329 328 328 330 331 328 327 327 327 326 325 326 328 329 328 329 331 330 329 328 329 328 328 328 328 329 330 331 332 332 332 331 331 331 331 332 332 333 333 335 334 334 336 340 341 342 342 341 340 340 341 342 343 343 344 343 342 341 341 341 342 340 338 338 337 338 336 336 336 335 333 330 329 327 321 318 318 316 314
330 332 330 330 329 329 328 327 327 327 326 328 326 327 328 326 324 325 326 327 327 326 327 329 329 328 329 328 327 327 326 326 326 328 330 330 331 331 331 331 330 331 331 331 332 333 333 334 335 334 335 338 340 340 341 341 340 340 341 343 343 343 343 343 342 339 338 339 340 335 336 336 336 335 334 334 334 334 332 331 330 328 326 324 322 320 315
332 331 329 330 328 328 327 327 328 327 327 328 328 326 326 327 325 325 326 326 326 326 327 327 327 328 327 327 327 327 327 327 327 329 330 330 330 331 331 330 327 326 327 329 330 332 332 331 331 332 334 335 337 338 339 339 338 338 340 342 343 339 337 337 338 339 338 338 337 336 337 336 336 335 335 333 332 331 332 331 330 330 329 328 325 321 317
330 328 329 328 328 327 327 328 327 326 327 328 326 325 325 324 323 324 326 326 326 327 327 327 326 325 326 327 327 327 326 327 328 329 329 329 329 329 330 329 329 329 329 329 329 329 328 327 327 328 331 333 334 336 337 337 337 338 339 340 341 342 338 334 338 337 337 337 337 337 338 336 335 335 335 334 333 332 332 330 331 331 329 327 324 321 319
327 326 326 327 327 325 324 326 326 326 327 325 324 326 326 326 326 326 326 326 326 326 325 324 324 325 326 326 326 326 326 326 327 327 327 328 329 329 330 329 328 327 327 327 328 328 327 325 326 329 330 332 333 334 335 335 336 337 338 341 341 342 339 335 337 338 338 337 336 336 336 336 336 335 334 334 334 334 333 334 330 330 330 326 322 321 320
328 327 328 329 328 326 325 327 328 326 326 326 326 326 326 327 326 325 325 325 324 323 323 324 324 325 326 326 326 326 326 324 323 324 326 326 327 328 328 327 327 326 327 328 328 327 327 327 327 328 329 330 331 332 335 336 335 337 338 339 340 340 338 337 337 338 338 336 336 336 336 337 336 335 334 333 334 332 332 333 330 327 325 323 323 322 315
332 329 328 327 328 329 329 328 327 325 325 324 324 324 325 325 325 324 324 323 322 323 324 325 326 327 326 326 326 326 325 324 324 324 325 325 325 326 326 325 326 326 327 327 327 326 326 326 327 328 328 329 329 331 333 334 335 335 336 338 339 339 339 337 338 337 337 336 335 334 334 335 336 334 333 331 330 330 332 331 327 323 320 318 320 322 319
330 329 330 330 331 330 328 327 326 326 326 325 324 324 323 323 323 323 322 323 324 325 326 326 326 326 325 325 324 324 323 322 321 322 323 323 323 323 323 324 326 325 324 324 326 325 325 326 328 328 327 327 328 330 331 332 333 334 335 336 337 339 339 337 337 336 335 334 333 332 330 330 330 329 328 327 327 328 326 325 323 321 320 319 320 321 322
330 331 331 330 329 328 328 327 327 326 325 323 323 322 322 322 322 323 324 325 325 325 325 325 324 324 323 323 323 322 321 321 321 321 321 321 322 323 323 324 324 323 323 321 322 325 326 325 327 326 325 325 327 328 330 331 331 334 336 337 338 338 336 334 331 330 330 329 329 327 327 326 326 325 324 322 321 320 321 320 320 320 321 321 321 322 323
332 331 330 328 327 327 327 327 326 325 323 322 322 322 322 322 323 323 323 324 324 324 325 324 323 323 323 322 321 319 319 320 320 319 320 320 321 322 322 322 321 321 320 319 322 325 325 325 326 325 324 325 326 327 328 330 334 339 338 338 337 335 331 329 327 326 326 326 325 325 324 323 322 320 320 320 319 319 318 318 319 319 319 319 320 321 322
330 330 328 328 328 327 325 324 324 323 322 321 321 321 322 323 323 324 323 323 324 324 324 322 322 321 320 319 318 318 317 318 318 318 319 320 322 322 321 322 323 323 322 324 326 324 324 325 325 324 323 324 326 327 329 332 334 337 338 335 331 329 328 326 324 324 324 324 323 322 321 321 320 319 318 318 317 318 318 319 318 319 319 319 319 319 320
328 327 326 327 325 325 325 323 322 321 322 323 322 321 322 322 322 322 322 322 322 323 322 321 319 317 317 317 317 316 317 318 320 320 319 320 321 322 323 325 326 326 325 325 325 324 324 324 323 323 323 324 325 326 328 331 332 331 329 328 326 325 324 324 323 323 322 322 321 321 320 319 319 318 318 318 317 317 317 317 317 317 317 317 318 317 318
327 326 326 326 325 325 323 322 320 321 322 322 322 322 323 323 323 322 321 321 322 322 322 321 319 317 317 317 318 318 320 320 321 321 322 321 320 319 320 321 326 326 325 325 324 324 324 323 322 322 322 323 325 326 327 327 327 326 325 324 324 323 323 322 322 321 321 320 320 319 318 318 317 317 317 317 317 317 316 316 315 316 316 316 315 315 315
327 327 326 325 323 322 322 322 321 321 320 321 321 322 322 322 322 320 321 321 321 321 321 320 318 319 318 319 319 320 321 322 323 322 321 320 320 320 321 322 326 325 323 324 325 324 324 322 322 323 322 323 324 324 324 325 324 323 323 323 322 322 322 322 321 321 322 321 320 319 318 318 317 317 317 316 316 316 316 317 316 315 315 315 315 315 315
327 326 325 323 322 322 321 321 321 320 320 321 322 322 322 322 321 320 320 320 320 320 320 320 320 320 320 321 321 320 320 322 322 322 320 320 322 323 323 323 326 325 323 325 324 324 323 323 322 322 323 324 324 324 323 323 323 322 322 322 322 321 321 320 320 320 320 320 319 319 319 318 317 317 317 316 316 317 317 317 317 318 318 318 318 318 319
327 326 324 323 322 321 322 321 321 320 320 320 322 323 323 322 322 320 319 319 319 319 318 317 319 320 321 321 320 318 319 320 321 322 320 319 319 322 326 329 325 324 324 325 323 322 322 323 323 323 324 324 325 324 323 323 322 322 322 321 321 320 320 320 320 320 320 319 319 319 320 319 319 318 319 318 318 318 317 317 317 317 317 318 319 320 319
326 325 324 322 322 322 321 320 320 319 320 322 323 323 323 322 321 320 320 320 319 318 318 318 319 320 321 320 320 320 321 323 323 322 319 317 316 317 322 323 322 323 322 324 322 322 321 322 322 323 324 323 324 324 324 323 322 322 322 321 321 321 320 320 320 320 319 320 320 319 320 319 319 318 318 317 317 315 314 315 316 317 317 316 317 317 317
325 324 323 321 322 322 321 321 320 321 321 321 321 321 321 320 320 320 321 320 319 319 319 319 319 320 321 321 322 322 322 322 323 324 322 320 319 320 323 324 324 323 323 323 322 322 322 323 322 322 322 323 324 324 324 323 322 322 322 321 321 320 320 320 321 320 320 320 320 321 321 320 320 319 318 317 317 316 316 317 317 317 317 316 316 316 316
324 323 323 322 322 322 322 322 322 321 320 320 319 319 319 319 318 319 320 321 321 319 319 320 320 321 322 322 322 321 318 317 318 320 321 321 322 321 322 322 323 324 323 321 321 322 322 322 322 323 323 323 324 324 323 323 322 322 321 321 321 321 321 321 321 321 320 320 319 318 318 318 318 318 319 318 317 317 317 316 316 317 318 318 318 318 318
323 322 322 321 321 321 321 321 320 319 318 318 320 319 319 318 319 319 320 321 320 319 318 319 319 320 321 321 321 321 321 319 314 316 321 321 322 321 321 321 322 324 322 323 321 323 323 321 321 321 322 323 322 323 323 322 322 322 321 321 321 321 321 321 318 318 318 317 317 316 315 315 315 315 316 316 317 318 319 319 318 318 318 318 317 318 318
324 323 322 322 321 321 320 319 318 317 317 319 321 320 319 319 319 320 319 319 318 317 316 316 317 318 319 319 319 319 322 323 321 318 322 322 321 320 321 322 324 324 321 322 321 321 323 322 322 321 321 321 319 320 320 320 319 320 320 320 320 320 320 319 319 318 318 317 317 316 317 317 318 318 318 318 318 318 318 318 319 319 319 319 319 319 319
324 322 321 320 321 320 319 316 315 317 318 320 320 320 320 319 317 317 319 317 315 315 316 316 317 318 318 318 319 320 320 321 322 322 321 321 322 322 320 320 322 324 323 322 322 322 323 325 324 325 323 323 321 320 320 320 320 319 319 319 320 321 320 321 319 319 321 321 321 321 321 321 322 321 321 321 320 319 320 320 322 321 321 319 319 319 320
323 321 321 321 322 322 322 319 317 319 320 318 321 321 321 320 319 318 317 316 317 315 315 316 317 317 318 319 319 319 320 321 320 321 321 320 321 321 321 320 320 321 322 320 322 321 322 323 323 322 321 321 321 322 322 322 322 321 322 321 322 322 322 321 321 322 322 321 321 321 321 320 321 321 321 321 321 321 321 322 320 319 320 321 321 322 321
324 324 323 323 322 321 320 318 320 321 320 320 320 319 319 319 319 317 317 317 317 317 316 315 314 317 319 318 317 318 319 319 320 320 320 320 320 319 320 320 320 319 320 320 319 321 320 321 322 323 323 321 321 321 323 323 321 321 322 321 323 322 322 321 321 322 322 321 320 320 320 320 320 320 320 321 320 320 320 321 321 321 320 321 322 322 322
Wind_Speed
5 4 5 3 4 6 7 8 8 9 6 6 8 9 9 7 8 9 5 2 4 8 4 2 1 1 3 4 4 4 6 7 7 8 9 9 9 8 8 9 9 10 11 11 12 13 12 13 14 14 12 11 10 11 11 11 10 8 7 8 11 11 13 12 12 11 10 9 7 10 12 14 14 15 13 11 11 11 10 11 11 12 13 12 13 12 12
7 6 5 4 7 7 8 8 8 7 7 8 6 8 6 7 9 8 9 6 8 8 5 2 3 2 4 4 3 5 6 7 8 9 9 9 9 8 9 10 10 10 11 12 12 13 13 14 14 13 12 12 11 11 12 11 10 9 7 7 9 11 12 13 12 12 11 9 9 9 11 13 13 13 14 12 12 13 13 13 13 12 13 13 13 13 12
9 7 5 7 8 9 9 9 7 7 7 8 7 7 6 6 10 11 8 9 10 1 3 1 3 3 3 4 5 5 6 7 8 9 9 9 9 9 9 10 11 11 12 13 13 13 14 14 14 13 12 12 12 11 11 11 11 9 8 8 8 8 10 11 12 12 11 10 9 11 12 11 10 11 12 12 12 14 14 14 14 13 12 13 12 11 11
8 7 7 6 6 7 10 10 10 9 9 9 8 8 5 7 8 6 6 8 9 4 2 1 4 4 5 6 5 6 6 7 9 10 9 9 9 9 10 10 10 11 12 13 13 14 14 14 14 13 13 12 12 11 11 11 11 10 9 8 8 8 9 10 11 11 10 11 11 11 12 13 12 13 12 12 12 13 13 14 14 13 13 12 10 9 9
7 4 3 4 6 7 11 12 9 7 8 8 6 4 4 8 7 8 8 6 6 2 2 5 5 5 5 7 5 6 7 8 10 10 9 10 10 10 11 11 11 12 12 13 14 14 13 13 13 14 13 12 12 11 11 11 11 11 10 9 9 10 10 10 10 10 10 10 11 11 12 12 11 11 12 13 13 13 14 13 13 13 11 10 10 9 10
4 4 2 2 6 8 2 8 5 1 4 5 8 8 7 7 8 8 6 8 4 4 5 6 6 6 6 7 5 4 7 8 10 10 10 10 10 11 11 11 12 12 12 12 13 14 14 14 13 12 12 12 11 11 11 11 11 11 11 10 9 9 9 9 9 9 9 9 10 11 10 10 10 10 10 12 13 11 10 10 11 11 10 9 9 10 10
7 4 4 6 8 6 8 4 5 2 1 2 6 8 9 8 8 10 12 10 9 6 6 5 6 6 8 8 8 8 8 9 9 10 11 10 11 11 12 12 12 13 13 14 14 15 14 14 13 12 12 11 11 11 11 12 12 12 10 10 10 9 9 9 8 8 9 9 10 10 9 9 9 8 8 7 10 9 9 9 10 10 9 9 10 9 10
4 3 6 7 3 7 5 5 5 4 1 2 5 10 13 14 12 10 11 10 8 6 5 5 4 6 8 9 10 9 9 8 8 9 10 11 11 12 11 12 12 13 14 14 14 14 13 13 12 12 12 12 12 12 12 12 12 11 10 10 10 10 9 8 8 8 9 9 9 10 10 9 10 11 9 9 10 9 7 7 6 6 7 8 9 10 11
8 7 8 10 3 7 8 5 6 6 4 4 5 8 8 3 5 7 8 7 6 5 6 5 5 4 7 9 9 1 3 4 7 9 11 11 12 12 12 12 13 13 13 14 14 14 13 13 12 12 12 12 12 12 12 11 11 11 10 10 10 9 9 9 8 8 8 9 9 10 9 10 10 10 10 10 9 7 10 9 8 8 9 9 10 11 12
8 8 8 7 8 8 4 7 6 2 3 1 1 5 10 8 7 5 6 5 4 5 5 5 4 4 8 7 4 4 2 6 10 11 12 12 12 12 12 12 13 14 13 13 14 14 15 14 13 12 12 12 12 11 11 11 11 11 11 11 11 11 10 10 8 8 9 9 9 8 8 9 9 9 8 7 6 9 10 10 10 10 9 11 11 12 13
6 9 9 8 9 5 7 8 7 6 4 4 3 5 9 4 3 4 3 4 5 5 5 5 2 6 7 6 5 5 8 10 11 13 13 13 13 12 13 14 15 14 13 14 15 14 13 14 13 13 13 13 11 11 11 11 10 11 11 10 8 11 12 12 11 9 9 9 9 9 8 8 8 10 9 8 8 11 8 9 9 9 11 11 10 7 8
9 8 9 9 6 6 7 9 8 8 6 5 5 8 3 7 5 4 2 3 4 4 4 4 6 6 8 7 7 11 12 12 13 14 14 14 14 13 13 14 14 14 13 13 14 13 13 13 13 13 12 11 11 10 11 11 12 11 10 8 8 10 12 13 11 9 9 10 9 8 8 7 8 8 8 8 11 11 10 10 10 9 10 10 9 8 9
10 11 10 9 8 4 8 10 10 9 6 4 6 9 5 4 2 1 1 5 3 4 5 4 7 5 7 9 10 12 12 13 13 13 14 14 13 14 14 14 14 12 13 12 13 13 11 12 12 11 10 10 11 10 10 11 11 11 11 11 11 11 11 11 11 8 7 7 10 9 8 8 8 7 8 8 8 9 9 9 8 7 9 8 9 9 9
10 9 10 9 7 6 8 9 10 10 7 6 6 5 2 2 0 2 3 5 4 4 6 6 7 8 10 11 12 13 13 14 14 14 14 14 13 12 13 14 14 12 12 13 13 12 11 11 11 10 9 10 11 11 11 11 11 11 11 12 12 11 11 11 12 11 7 7 6 7 7 7 7 7 7 8 8 10 10 10 10 9 8 8 8 7 6
9 8 11 7 8 5 9 13 8 4 7 4 4 3 2 2 4 3 4 5 4 5 6 7 9 10 11 12 14 14 14 14 14 14 14 14 13 13 14 14 14 13 12 12 12 12 11 11 10 10 10 11 11 11 12 12 12 11 11 11 12 11 10 10 8 11 9 6 6 5 6 7 7 7 7 8 9 10 10 9 8 8 7 7 6 5 5
8 8 9 5 4 8 12 11 4 9 9 4 1 3 4 2 3 4 4 5 5 6 7 8 10 12 13 13 13 14 14 14 14 14 14 13 13 13 13 14 14 14 13 12 11 11 11 10 10 9 10 10 11 12 14 12 11 10 10 10 10 11 10 10 8 9 8 6 4 5 7 7 6 6 7 8 9 8 9 8 8 8 7 6 5 5 5
7 6 4 6 2 7 11 9 2 2 6 4 3 3 4 5 4 2 5 6 6 7 8 9 10 11 12 13 14 15 15 15 15 14 14 14 14 13 14 14 14 13 12 13 11 11 10 11 10 9 9 10 12 15 14 11 10 8 10 10 10 11 11 8 8 10 6 4 4 5 6 7 7 6 8 8 8 8 9 8 7 6 6 6 6 6 6
5 8 7 1 2 4 7 8 4 2 2 4 5 6 6 3 5 5 6 7 8 8 8 9 10 11 12 14 14 14 14 14 14 13 13 14 14 14 14 13 12 11 10 11 11 11 11 11 10 8 10 11 12 12 13 12 13 8 6 10 11 10 11 9 7 8 6 3 4 5 7 6 6 6 7 7 7 8 7 6 5 5 7 6 7 6 6
3 4 4 5 5 5 7 8 7 4 4 3 4 5 5 6 6 6 6 7 8 8 8 10 10 11 12 13 13 13 13 13 12 13 14 15 14 14 14 13 11 11 11 11 11 11 11 11 10 9 9 10 10 10 12 12 11 8 7 7 11 10 10 8 7 7 6 4 4 4 5 4 4 6 6 5 6 6 6 6 6 6 6 6 7 6 6
8 9 1 2 1 2 3 5 6 7 8 8 8 7 6 5 4 6 7 6 8 7 9 9 10 12 13 14 14 13 13 13 12 13 14 14 14 13 12 11 11 12 12 12 11 12 12 10 10 10 10 9 10 7 11 12 11 11 9 7 6 7 10 8 6 5 4 3 4 2 2 3 4 4 4 5 5 6 7 6 6 6 6 6 6 6 7
7 9 10 9 4 6 8 7 7 5 5 4 4 5 4 4 5 6 6 6 8 8 9 10 11 13 13 13 14 14 13 13 13 13 13 13 13 12 12 11 11 11 11 11 11 12 11 10 10 9 10 8 6 10 10 11 11 11 9 7 6 9 8 6 4 3 3 2 0 0 3 4 5 6 4 3 3 4 3 3 2 3 5 5 6 6 7
9 8 5 1 5 5 3 5 5 5 4 5 5 4 4 4 6 5 7 8 8 8 9 10 11 13 12 12 12 14 13 13 13 13 12 11 12 12 11 10 11 11 11 11 11 11 10 10 9 9 6 8 9 8 9 10 11 10 9 6 6 6 9 6 4 3 3 1 1 2 4 5 5 6 10 13 10 5 2 7 10 9 3 2 6 9 9
7 4 3 1 4 7 5 5 4 4 2 3 4 5 6 6 4 4 6 8 9 9 10 10 11 11 11 13 13 13 13 12 11 11 11 11 11 12 11 11 11 11 11 11 11 11 11 9 9 8 7 5 7 8 8 9 10 10 9 6 5 5 6 6 4 5 3 2 1 2 5 6 5 4 3 9 16 16 12 8 10 11 11 10 10 9 8
11 10 8 5 4 7 3 1 1 1 0 3 4 4 4 5 5 4 6 7 9 10 10 11 10 11 12 13 13 14 14 12 11 11 10 11 11 10 10 10 10 11 11 11 11 11 10 9 9 8 7 6 7 7 8 10 9 10 9 7 5 4 5 4 2 3 2 1 1 2 2 3 6 5 4 4 7 14 14 13 13 12 10 10 10 11 10
7 4 3 3 4 3 1 1 1 1 0 4 5 5 4 6 6 5 7 8 9 10 10 11 12 11 12 13 13 12 11 10 10 11 11 11 10 9 9 10 10 10 10 10 11 10 10 10 9 9 8 4 4 5 7 9 9 9 10 9 7 7 5 4 3 1 2 2 2 3 3 4 5 6 6 6 6 6 10 14 16 16 15 11 10 12 13
6 2 0 1 2 2 2 3 3 2 1 1 3 3 2 3 4 6 8 9 9 9 11 11 12 12 11 11 10 11 10 10 10 11 10 10 10 9 9 10 11 11 11 12 11 11 11 11 10 8 9 6 4 5 7 9 9 8 9 10 9 7 6 5 3 2 2 2 2 1 3 5 5 6 6 6 6 8 8 7 9 12 15 15 10 11 13
4 3 3 4 6 5 4 5 4 2 1 2 3 4 5 5 4 6 7 8 10 10 10 11 11 10 10 9 10 10 10 11 11 10 9 10 11 10 10 10 11 12 12 12 11 11 12 11 9 8 7 7 5 6 6 8 8 9 9 9 8 8 9 6 4 3 3 1 1 2 3 5 5 5 4 6 6 7 7 8 7 7 6 6 11 9 9
4 5 6 7 6 4 2 2 3 1 0 2 3 5 6 6 7 8 9 10 10 10 10 9 10 10 10 9 9 10 9 10 11 12 11 9 9 9 10 11 12 13 12 12 11 10 10 9 9 9 8 6 6 6 7 8 9 8 9 8 8 7 5 3 3 2 2 2 1 3 4 5 5 5 6 7 7 6 6 9 9 8 7 6 6 9 11
5 5 5 4 1 3 3 2 2 2 1 1 2 5 6 7 8 9 10 9 9 10 10 10 9 9 9 9 8 9 10 11 12 14 12 11 10 10 10 11 12 12 11 11 11 10 10 10 9 9 9 7 7 8 8 8 8 8 9 8 7 6 4 2 2 2 1 2 2 3 3 3 3 4 5 6 7 6 7 8 8 8 8 8 9 9 9
5 5 5 4 4 4 3 3 1 1 2 2 5 5 6 8 9 9 9 9 9 10 10 10 10 9 8 8 8 9 11 13 13 13 12 11 10 9 9 10 11 10 10 10 11 11 11 10 9 9 9 9 10 10 10 10 8 8 9 9 8 6 4 3 1 2 1 2 0 4 3 4 4 5 6 6 6 7 8 8 9 10 10 9 9 10 9
6 6 6 5 4 3 2 1 1 1 2 2 4 6 7 8 9 9 9 8 7 8 10 10 10 10 10 10 11 11 12 12 12 12 11 10 9 9 9 10 10 10 10 11 11 11 11 10 9 9 9 10 10 10 10 10 8 7 9 8 6 5 2 2 1 2 2 2 2 4 5 5 5 6 7 7 7 8 7 8 9 10 10 10 10 10 9
7 7 7 5 4 4 3 2 2 2 2 3 5 6 7 8 8 9 9 8 8 9 10 10 11 11 11 11 10 9 10 9 10 10 9 9 9 9 8 9 10 12 11 10 9 8 8 8 9 9 9 9 10 10 10 9 8 7 8 8 7 4 2 4 3 3 3 2 2 3 4 5 6 6 8 7 7 8 7 8 10 10 10 11 10 9 8
8 7 7 6 5 4 3 2 1 1 2 4 5 5 5 5 6 7 8 9 9 9 10 10 9 9 9 9 9 9 9 9 9 8 9 9 9 10 10 10 9 10 9 8 8 8 8 9 9 9 9 9 9 10 10 9 8 7 8 7 7 4 2 3 3 3 3 2 3 3 4 5 5 6 7 6 5 5 6 6 9 10 10 10 10 9 9
8 4 2 4 3 2 3 2 1 1 2 2 3 4 4 5 5 6 7 8 9 9 8 8 8 8 9 9 9 8 7 7 7 8 9 10 10 11 10 9 9 9 8 8 8 7 7 9 10 10 10 10 10 9 9 9 8 7 7 6 6 4 2 4 4 3 1 2 2 3 2 3 5 5 6 5 4 7 8 6 7 10 12 11 10 9 10
4 5 6 6 5 4 3 2 1 0 2 3 3 3 4 5 5 6 6 7 6 6 7 8 8 8 8 8 7 8 9 9 9 10 10 10 10 10 9 9 8 8 8 7 7 8 9 10 10 11 10 9 9 9 7 8 7 7 7 7 6 4 2 3 3 2 0 2 3 3 3 3 3 5 5 6 6 6 5 6 8 9 11 12 11 7 5
8 7 7 6 5 5 4 3 2 0 2 2 3 4 4 5 5 5 5 5 6 7 7 8 8 8 8 8 8 9 8 8 8 8 9 9 9 8 8 8 9 9 9 9 9 10 11 11 15 16 10 8 7 7 7 7 7 7 7 6 6 3 2 3 3 4 3 4 5 6 6 8 8 8 8 8 8 8 8 8 10 9 10 13 10 9 7
7 7 7 6 5 4 4 3 2 2 3 2 3 3 3 3 3 3 3 4 5 7 7 7 6 7 8 8 7 7 7 7 7 7 7 7 7 8 8 9 9 10 11 10 11 10 9 12 16 15 10 7 7 8 8 10 7 7 7 5 4 3 3 5 6 6 6 6 6 7 8 9 9 9 9 9 10 11 9 8 8 6 6 7 9 9 9
8 8 7 6 5 5 4 4 3 3 2 2 2 2 3 3 3 3 3 4 5 6 6 6 7 6 6 6 7 8 8 8 8 8 8 7 7 7 8 9 10 11 10 11 12 10 10 13 15 10 9 7 7 7 8 12 11 3 1 1 4 6 6 7 7 8 7 7 7 8 8 9 10 10 10 10 11 10 11 11 9 8 8 9 8 8 9
8 7 6 6 5 5 5 4 4 3 2 2 2 3 4 5 5 4 3 4 6 6 6 6 6 6 7 8 8 8 8 8 8 8 7 7 6 7 8 9 9 9 9 10 10 9 10 12 9 8 8 8 8 7 8 8 5 3 5 6 7 7 7 8 9 9 9 8 8 9 10 11 11 11 11 9 10 13 13 14 13 10 9 9 10 9 9
7 6 6 6 5 5 5 4 4 3 2 2 3 4 4 3 2 3 4 6 6 6 6 6 7 7 7 8 7 6 6 7 7 8 8 8 8 8 7 9 11 11 11 11 9 9 11 13 10 8 9 9 9 8 8 10 10 8 8 7 7 8 9 10 10 10 9 9 10 11 12 12 12 13 12 12 11 12 12 12 12 11 11 11 12 11 12
7 6 6 5 5 4 5 4 4 3 4 4 4 4 2 2 3 4 5 6 7 7 8 7 7 7 6 5 5 5 5 6 7 8 8 8 9 9 10 11 12 12 13 11 9 9 10 10 10 10 10 9 8 9 8 13 11 9 8 9 8 8 8 9 10 11 10 9 9 9 10 11 12 12 12 12 10 10 10 12 12 12 11 12 12 11 11
7 7 7 7 6 5 5 5 4 5 5 5 4 3 4 5 5 6 6 6 7 7 8 8 7 5 4 4 4 5 5 6 6 7 7 8 10 9 9 10 11 11 15 12 11 11 10 10 11 10 9 8 9 16 14 11 11 11 10 10 10 10 10 10 11 9 8 9 9 10 11 11 12 12 12 12 11 11 11 10 10 11 12 13 12 11 11
8 8 8 7 7 6 5 5 5 6 6 5 4 4 5 6 6 6 6 6 7 7 7 5 4 4 5 5 5 6 6 7 7 7 6 8 9 9 10 9 8 10 15 10 11 11 11 10 11 9 8 7 8 13 14 11 10 11 10 9 10 10 12 12 11 11 12 11 11 11 11 12 11 11 11 11 11 11 11 10 10 10 9 9 8 8 7
8 7 7 7 7 6 6 6 6 6 6 5 5 5 5 6 6 6 6 6 7 7 6 5 5 5 6 6 6 6 6 7 7 7 7 6 7 9 10 8 8 9 14 10 9 10 11 11 11 11 12 11 13 13 11 11 11 12 12 12 12 12 13 13 13 12 12 12 12 12 12 13 13 12 12 12 12 11 10 10 9 9 8 8 7 7 7
8 8 8 8 7 7 6 6 7 7 6 5 5 6 6 6 6 5 5 6 7 6 5 4 5 5 5 6 6 6 5 5 5 6 6 7 7 8 9 9 9 10 12 12 9 10 10 10 10 12 10 10 12 13 12 12 13 13 13 13 12 12 12 13 13 13 14 14 14 13 13 13 12 12 12 12 12 11 10 10 9 8 9 9 8 9 8
9 8 8 8 7 7 7 8 7 6 6 7 7 6 7 6 5 5 5 5 6 5 4 4 3 4 5 5 4 4 5 5 5 5 5 5 5 5 7 9 9 10 13 13 10 9 9 12 13 13 13 12 13 13 13 12 12 12 13 13 12 13 13 14 15 15 14 14 13 13 13 13 12 12 12 11 10 9 9 10 8 7 7 7 7 7 5
10 9 8 7 7 8 9 8 7 7 7 6 7 7 6 5 5 5 5 5 5 5 3 3 4 4 5 5 5 5 6 7 7 7 6 6 5 6 7 9 10 11 11 10 10 10 10 10 12 13 13 13 14 13 13 13 13 14 14 14 14 14 15 14 14 14 13 13 12 13 13 12 11 11 11 11 10 10 9 8 7 7 6 6 5 6 5
9 9 8 8 9 9 8 8 7 6 6 5 6 7 6 6 5 5 5 5 5 5 5 4 3 3 4 4 6 7 6 6 7 7 6 6 6 7 7 7 8 9 9 10 12 13 17 17 17 16 14 13 12 12 13 13 14 14 14 14 14 14 13 12 12 12 12 12 12 11 11 11 11 11 11 10 10 9 8 8 8 8 8 7 6 6 6
9 9 9 8 9 9 8 6 6 6 6 6 7 7 7 6 6 5 5 6 6 5 5 5 5 4 5 6 6 6 5 4 5 5 5 7 7 8 8 8 10 10 8 7 8 8 12 15 16 16 16 14 11 11 12 12 13 13 13 13 13 12 11 11 11 11 11 12 12 11 11 10 10 9 9 8 8 8 7 7 7 7 6 6 5 5 4
9 9 8 8 8 7 6 6 6 6 6 7 7 7 7 6 6 5 5 4 5 5 5 4 4 3 3 4 5 5 5 5 5 6 7 8 8 8 8 8 8 9 9 7 7 6 8 10 11 12 10 10 10 11 12 12 12 12 12 12 12 11 11 11 10 10 10 10 10 9 9 8 8 8 7 7 7 7 7 7 6 6 5 3 5 5 4
9 8 8 8 7 7 5 4 6 6 5 7 8 7 7 6 6 5 5 5 5 4 5 4 4 4 4 4 5 6 6 6 6 6 5 6 6 8 8 8 8 8 8 8 7 6 6 7 7 8 9 9 9 9 8 8 9 10 10 10 10 9 9 10 10 10 10 9 9 9 8 8 8 8 7 6 6 6 5 5 5 5 5 5 5 5 5
8 7 7 7 7 7 6 7 6 5 6 6 7 7 6 6 7 6 5 2 4 4 3 5 5 4 4 4 4 6 6 5 5 6 5 5 4 5 6 6 7 7 7 8 7 7 7 6 7 8 8 8 8 9 9 10 9 8 8 8 8 8 8 7 7 7 7 8 8 8 7 7 7 7 7 6 6 6 5 5 5 5 5 4 5 5 6
Wind_Direction
252 259 281 274 261 257 280 282 279 272 258 247 254 260 281 297 273 282 52 336 289 287 321 43 311 349 320 330 349 338 319 306 306 306 306 308 307 306 307 311 314 315 318 321 321 321 322 323 325 325 322 320 316 310 311 311 309 308 310 305 300 298 297 293 282 269 260 249 258 260 246 234 226 225 219 211 207 209 207 217 220 220 223 223 222 218 222
251 246 252 248 263 268 261 259 263 261 267 272 273 276 268 263 269 287 296 301 288 284 305 357 22 346 327 334 335 301 296 305 303 298 301 307 308 306 309 312 314 316 318 319 320 321 322 326 326 326 323 319 314 310 308 309 306 305 307 304 299 300 298 295 293 284 271 262 245 239 251 247 238 230 227 221 217 219 217 220 224 222 221 223 222 219 217
254 236 240 256 258 272 272 271 262 257 258 258 253 264 251 253 264 269 272 276 281 261 102 7 333 305 297 289 280 297 302 295 301 304 304 305 304 307 306 310 312 316 317 320 322 322 323 323 324 324 322 319 316 309 306 304 305 306 300 292 290 290 290 291 292 289 284 271 255 241 237 244 239 233 232 228 223 221 220 221 223 222 220 220 218 218 213
261 204 237 248 265 262 268 267 263 256 245 247 234 243 253 254 275 277 276 272 267 111 85 12 266 256 252 273 287 295 306 310 306 300 300 303 305 306 310 311 311 316 321 321 321 322 324 323 321 321 321 318 312 308 308 306 307 305 298 290 289 287 282 282 283 285 283 277 269 256 249 245 241 235 232 227 224 222 220 219 220 221 222 216 208 193 202
261 127 217 262 262 264 251 239 236 242 237 250 261 263 250 260 283 271 264 287 46 55 17 303 272 266 301 311 312 307 304 302 299 296 299 303 305 310 311 313 316 317 318 318 320 321 320 318 317 319 319 315 311 308 305 307 304 301 296 289 284 280 277 276 275 272 273 275 272 266 257 251 247 242 236 229 224 221 220 219 220 220 215 208 207 201 208
268 133 201 214 250 250 262 68 63 344 303 243 252 253 252 239 226 265 299 306 327 291 278 286 300 305 320 313 300 275 288 294 295 297 299 302 302 304 311 314 312 315 317 317 317 319 318 316 314 316 315 310 306 302 301 300 299 300 296 292 285 280 278 275 271 269 269 265 264 265 264 260 253 250 249 247 243 235 226 216 220 224 218 210 208 206 207
253 157 193 235 242 257 86 122 91 87 96 293 261 275 274 258 242 256 268 270 273 280 286 292 300 307 301 302 305 287 285 286 284 287 293 299 304 309 309 310 315 317 316 315 318 317 317 315 312 313 314 316 311 305 304 302 301 298 291 288 285 282 278 273 270 264 262 261 262 261 256 251 250 250 245 255 254 238 226 219 217 218 214 215 216 208 210
261 241 224 244 270 76 140 122 124 110 213 218 259 260 254 249 247 249 256 264 277 279 272 275 286 298 306 298 285 267 262 265 282 294 301 307 312 311 313 311 312 317 318 317 315 316 314 311 310 312 316 316 313 309 307 301 300 299 292 285 283 282 274 271 263 256 251 256 257 256 253 240 236 237 235 228 233 236 225 218 207 201 206 208 209 211 215
246 237 237 244 323 264 184 163 190 192 193 203 243 296 309 335 237 248 261 271 275 268 269 275 283 309 304 293 283 216 288 270 280 294 302 307 307 308 305 313 319 316 314 314 315 312 311 310 309 314 317 315 312 309 307 306 304 299 293 287 286 286 279 272 266 260 252 251 254 255 250 242 237 233 231 228 224 234 231 220 216 210 214 210 210 210 214
227 256 260 246 242 257 225 106 101 127 139 0 76 282 277 250 223 243 263 268 261 260 261 268 290 294 282 280 296 134 248 336 321 318 313 311 306 305 315 318 313 315 316 315 312 312 312 310 313 316 316 313 310 307 306 306 306 302 299 296 294 297 295 285 278 266 258 246 243 241 242 243 240 242 228 225 226 222 228 225 218 215 217 221 220 218 219
203 237 252 258 269 284 82 136 128 136 135 164 162 257 269 95 129 142 223 239 264 276 281 286 254 272 279 292 306 8 341 329 323 317 315 313 312 317 319 316 317 319 318 314 309 310 312 311 317 318 316 312 308 307 304 301 301 300 297 298 291 289 295 285 283 274 262 253 244 236 233 227 226 232 222 206 215 222 214 221 217 213 216 220 221 216 217
240 248 244 253 249 277 123 122 137 138 146 160 226 274 302 106 140 144 234 250 278 284 273 270 267 269 283 300 327 334 322 319 312 309 310 312 314 315 314 314 318 317 313 309 309 312 315 318 318 317 315 312 310 301 299 303 305 302 296 292 285 278 275 275 272 270 263 256 246 238 227 223 225 231 227 214 211 214 215 212 212 212 217 220 209 206 214
231 232 258 268 261 120 130 134 133 135 145 192 254 278 38 151 131 195 219 276 252 258 262 250 271 271 291 303 306 304 303 299 298 300 304 305 309 313 317 317 322 316 312 311 312 316 321 319 318 318 315 311 305 302 301 301 302 299 295 298 295 287 281 280 278 264 255 256 256 240 227 217 218 216 222 218 209 213 202 203 211 216 217 219 210 210 209
246 243 248 255 273 92 129 131 141 148 166 228 281 56 168 107 250 187 263 285 260 257 255 269 273 289 296 296 296 297 303 305 303 299 301 304 308 313 315 317 315 312 312 313 314 318 319 317 318 317 314 306 303 301 297 296 305 308 310 307 302 295 294 301 294 279 255 242 237 244 231 227 211 215 212 207 201 197 202 205 209 211 218 220 216 197 178
242 257 266 268 263 137 163 132 138 183 246 334 67 126 90 350 312 297 263 256 274 259 269 269 279 286 295 303 304 304 301 299 299 299 301 305 310 315 318 317 319 320 318 317 317 318 318 319 318 318 314 307 303 302 296 300 308 314 312 303 303 302 291 275 281 279 270 242 238 237 233 222 219 207 201 197 200 203 204 202 203 199 194 202 202 183 186
256 239 238 259 6 115 160 168 238 180 234 356 28 317 270 150 283 286 282 254 255 278 279 291 295 298 298 296 299 301 302 301 301 299 299 303 309 311 316 318 316 319 318 320 320 316 315 314 316 315 313 306 301 298 293 299 310 314 314 313 316 307 299 300 279 269 270 266 234 230 229 224 220 204 196 208 205 206 204 192 190 184 182 174 170 180 173
240 282 333 71 104 149 177 210 335 320 213 215 247 265 286 296 281 264 284 299 301 294 298 293 293 292 293 298 303 302 302 302 300 302 307 308 307 315 319 318 323 323 321 320 318 317 315 314 317 313 308 305 301 296 299 308 307 315 318 315 313 300 291 295 297 288 272 253 221 217 226 222 218 208 202 199 197 197 197 194 190 174 152 162 156 148 144
267 273 273 137 122 172 202 228 250 245 202 232 246 256 277 272 295 298 293 301 299 296 298 296 296 296 301 301 300 301 300 300 301 298 299 301 309 315 315 319 324 318 317 314 317 317 317 317 315 322 313 305 298 297 306 308 307 315 318 316 307 299 297 285 259 278 285 265 242 212 209 216 222 217 215 207 199 193 195 197 180 166 156 160 152 148 150
308 265 144 232 224 203 216 243 246 225 225 233 231 254 259 286 289 290 290 289 291 295 297 291 294 293 296 297 299 300 297 293 296 304 306 308 314 316 321 323 318 315 315 313 315 315 313 314 313 312 305 303 305 314 306 304 304 310 316 301 284 284 280 286 282 275 296 280 247 223 194 186 212 226 209 206 197 201 200 188 183 173 173 169 167 164 162
248 274 57 161 123 251 246 251 252 244 235 232 247 259 274 286 293 289 293 285 282 290 288 297 301 299 302 303 304 304 304 309 308 305 309 314 315 320 323 314 315 311 313 315 317 314 314 317 316 314 318 331 324 307 294 299 304 303 304 287 274 282 286 285 281 283 292 326 281 256 192 188 192 203 213 222 204 203 204 195 190 183 183 175 168 168 147
265 260 260 250 227 236 228 225 240 277 292 276 252 261 257 252 264 273 273 282 293 298 298 302 301 301 303 305 309 307 302 301 305 309 313 321 320 318 316 317 313 310 313 314 313 312 312 314 311 317 323 322 300 295 294 299 304 304 301 294 279 277 289 291 287 319 349 314 227 198 88 90 65 39 13 321 268 215 194 228 225 204 182 160 157 128 130
257 268 295 312 257 274 227 200 217 231 235 252 257 239 253 267 281 283 291 294 298 300 302 301 301 301 305 305 302 302 304 306 309 318 320 315 317 317 315 313 312 310 309 307 313 313 311 310 308 310 318 311 302 294 292 293 298 303 304 310 309 289 290 297 327 360 358 312 184 134 125 118 97 77 67 56 35 354 105 57 58 54 65 167 135 144 155
270 319 339 340 286 278 284 326 359 339 328 253 256 268 283 289 280 290 292 300 304 303 303 306 304 300 299 302 305 302 303 310 322 317 315 318 316 313 315 311 309 308 310 313 314 313 312 313 308 316 312 291 293 296 291 291 297 300 303 298 292 291 294 312 350 333 331 331 349 124 136 136 121 106 83 43 34 29 24 51 75 75 80 87 108 136 159
289 289 296 296 269 284 331 3 328 283 17 294 286 281 286 296 303 299 298 305 306 304 303 301 301 302 304 303 304 306 311 320 320 316 318 313 307 310 311 311 311 314 317 316 314 313 313 309 310 304 303 310 305 305 307 297 295 304 305 303 300 296 285 297 326 327 353 10 97 103 101 115 125 134 125 101 50 35 36 46 51 55 64 87 98 108 122
287 22 353 321 284 282 309 141 244 330 82 302 308 321 321 312 309 321 310 304 300 301 302 303 303 305 306 305 307 314 319 315 315 316 310 302 304 308 308 310 315 318 317 315 313 312 311 310 310 308 306 299 262 283 299 296 301 308 313 309 308 308 306 309 315 341 347 39 85 138 151 150 150 151 157 149 119 89 52 54 61 57 45 54 99 123 117
275 246 90 153 251 214 211 231 203 200 206 254 278 289 297 293 317 308 301 302 298 298 298 303 304 307 310 309 312 314 312 312 315 313 311 311 314 314 313 315 318 319 321 320 317 314 313 315 309 307 307 295 289 310 306 298 305 312 312 313 313 311 312 311 324 352 10 57 96 173 193 191 178 177 176 157 135 131 117 106 76 57 49 40 49 105 119
238 209 204 220 227 229 234 283 326 124 176 295 307 304 294 298 290 285 294 293 297 301 303 303 302 308 309 309 308 311 316 318 314 315 317 314 315 315 315 315 316 321 321 313 309 308 311 312 312 305 294 309 332 312 299 295 308 313 310 312 310 311 312 295 324 353 351 13 119 183 208 204 194 188 173 159 142 145 141 135 122 114 103 59 28 32 111
215 199 213 247 281 284 218 185 92 92 298 287 302 295 305 303 292 289 295 304 307 313 310 309 312 312 310 313 314 314 318 318 319 319 320 318 316 316 317 320 322 321 316 308 303 306 310 312 310 305 301 320 327 316 308 309 310 310 309 307 304 299 310 271 261 311 322 295 192 193 190 211 201 174 167 163 163 160 149 140 133 123 108 80 81 51 68
206 198 198 231 234 111 111 113 163 186 233 229 282 299 299 301 305 305 306 312 317 314 309 313 313 310 310 315 321 321 320 320 319 318 318 316 316 320 322 321 319 315 307 304 309 315 315 312 308 310 311 322 325 320 312 309 312 312 305 301 297 293 296 281 238 259 290 303 249 198 192 198 189 174 175 168 159 149 143 140 139 130 121 125 115 91 81
204 183 185 190 178 166 173 191 198 257 296 317 308 304 308 305 306 310 309 314 321 317 316 318 316 317 324 324 326 322 317 315 313 307 307 310 314 322 324 323 317 311 311 318 323 321 320 320 322 318 315 325 321 317 316 315 314 307 298 296 292 295 307 305 227 264 251 254 104 95 168 173 180 176 169 163 158 154 147 152 149 144 140 137 127 123 119
173 178 188 177 183 181 225 194 180 256 282 297 301 304 308 313 310 306 310 317 316 315 322 324 323 323 324 322 318 313 309 306 306 305 312 320 326 327 328 325 319 316 316 318 320 319 320 326 318 307 315 316 309 307 307 307 306 305 301 300 299 285 275 40 234 248 229 235 169 193 186 182 186 179 176 161 158 159 158 153 154 152 149 141 132 128 132
168 178 175 186 193 205 193 185 225 260 289 303 310 314 319 317 316 313 318 322 325 323 330 333 329 326 322 322 321 320 315 315 313 315 320 323 326 328 327 323 320 317 317 317 316 316 319 314 306 309 310 303 301 301 302 300 300 298 293 292 292 286 187 183 219 209 225 209 204 216 188 187 181 189 175 172 164 173 162 155 154 153 149 143 136 125 128
182 180 188 192 190 214 220 194 234 290 332 325 321 318 312 316 322 322 328 331 329 328 325 323 326 326 324 323 323 322 324 322 323 327 329 333 326 329 331 330 326 323 319 315 308 310 313 309 307 307 303 302 299 295 293 295 296 293 289 291 293 299 148 189 230 226 214 189 171 215 193 194 175 178 176 174 167 115 115 151 152 150 141 121 112 120 134
196 219 210 169 197 202 202 171 134 294 318 315 307 303 313 325 329 324 328 329 324 325 324 328 326 322 317 319 323 333 341 338 335 336 338 332 329 330 334 334 328 323 317 315 318 323 320 318 314 310 305 303 300 297 295 292 290 290 287 287 292 290 170 196 190 242 244 155 147 170 179 179 168 167 158 156 133 127 151 152 139 130 125 115 115 121 118
155 112 110 112 109 99 88 91 70 20 317 303 314 325 336 338 336 335 340 323 329 327 322 319 318 322 329 329 335 348 351 347 341 336 328 330 335 341 339 329 322 326 329 329 345 340 330 322 316 313 312 305 297 291 288 286 286 288 293 294 288 268 209 191 198 236 349 88 124 134 138 134 108 99 109 113 99 100 88 92 114 110 112 115 112 106 102
129 117 109 104 99 102 103 99 107 2 322 336 358 344 341 332 336 335 345 342 337 327 331 328 329 334 352 359 355 1 355 350 340 336 334 341 343 339 333 331 340 345 339 336 354 344 335 329 329 333 329 311 302 295 295 297 295 288 281 280 281 258 176 161 115 73 59 79 82 77 72 80 91 97 99 92 84 84 94 102 119 119 119 123 125 117 108
127 121 115 111 109 109 109 116 97 54 33 24 356 352 350 1 344 3 356 355 342 337 346 347 349 359 5 13 11 4 3 356 353 349 348 346 342 341 347 341 345 343 341 341 340 334 342 338 341 345 338 321 313 306 306 307 295 272 256 257 228 177 125 101 82 76 71 73 78 82 82 83 84 82 79 80 87 84 78 75 78 76 74 98 110 114 110
117 117 117 119 123 125 112 89 72 76 76 68 27 33 11 17 23 22 12 355 355 346 346 357 13 16 14 14 22 23 18 11 4 1 356 356 344 343 358 359 355 353 350 344 336 339 344 342 346 351 339 334 320 318 317 310 309 315 163 195 105 85 81 87 87 84 78 76 77 80 87 90 94 92 86 81 80 75 79 77 72 67 76 85 78 73 76
116 113 118 127 129 122 116 106 97 91 70 50 55 63 45 25 27 13 4 8 11 5 18 21 21 26 29 36 38 29 19 8 2 8 2 353 338 5 15 9 6 2 355 339 338 350 351 348 351 355 347 345 342 342 343 343 12 43 64 79 79 86 83 85 87 89 84 82 81 88 89 93 93 94 93 87 90 93 92 92 90 91 88 78 77 79 80
126 131 134 138 134 129 122 111 101 92 82 52 57 61 46 47 34 11 28 40 37 30 33 42 44 44 41 41 36 27 2 348 342 8 14 7 10 8 21 24 14 10 360 341 355 7 1 356 1 9 4 3 15 17 20 39 46 50 54 62 71 80 85 87 90 91 89 87 90 91 95 96 96 95 96 97 94 93 95 91 86 80 80 79 76 74 69
134 138 138 135 129 126 122 122 113 93 81 79 75 65 36 43 52 55 54 60 57 52 53 57 62 61 55 40 22 4 347 339 344 7 9 8 15 19 26 25 13 11 4 359 8 10 19 19 15 22 24 25 26 43 42 45 54 60 57 58 63 71 76 77 83 86 90 91 90 87 92 97 98 99 100 98 94 95 97 100 102 100 95 91 88 82 77
139 141 137 133 130 127 124 121 123 117 105 95 83 74 62 62 70 78 79 77 74 70 74 75 69 57 38 19 11 3 3 355 358 10 14 21 21 15 11 23 8 7 340 352 24 27 29 35 33 34 31 33 39 51 52 52 58 62 64 63 67 68 73 74 78 76 75 82 87 92 95 98 99 99 97 97 96 96 95 94 95 99 108 115 118 122 120
146 144 138 134 133 130 131 126 118 114 113 101 90 85 92 98 101 100 89 83 82 82 80 76 64 51 40 22 15 19 10 0 12 27 36 37 27 21 20 6 352 2 344 6 21 36 35 39 41 41 30 46 58 66 67 67 69 71 72 72 78 79 82 84 87 90 93 94 95 97 99 101 99 99 99 102 103 101 99 93 92 93 87 83 79 83 88
147 140 139 138 134 131 129 125 127 124 117 110 105 107 111 109 102 97 93 89 85 82 70 40 25 30 33 31 32 32 24 7 360 15 28 36 31 20 6 357 357 6 3 11 24 34 39 42 41 21 19 41 56 59 62 70 72 75 78 82 83 87 91 92 93 95 98 100 101 100 100 104 106 107 107 104 102 95 89 88 88 88 91 87 85 84 83
143 139 140 135 135 135 134 132 130 124 121 126 124 117 107 101 99 97 94 92 87 83 65 43 25 11 17 34 38 36 34 17 10 5 15 16 24 20 2 10 13 16 16 12 42 41 41 38 22 8 17 43 70 72 73 71 73 75 77 79 81 82 82 84 87 91 94 96 98 99 101 102 99 96 96 93 90 88 86 86 84 84 89 97 99 105 113
138 136 132 137 139 136 132 129 126 131 133 128 117 105 101 105 108 104 95 90 86 74 60 42 20 5 3 11 48 71 73 50 34 26 30 28 22 14 12 9 22 15 17 24 39 38 42 22 22 30 32 42 66 72 75 77 80 82 83 83 84 87 89 92 94 94 95 97 96 97 97 95 94 92 92 94 90 89 91 92 90 90 98 112 120 126 129
139 139 138 135 129 132 136 138 140 139 138 143 134 121 120 124 118 106 93 87 87 86 70 43 29 14 8 14 24 38 62 67 56 33 40 48 44 36 30 24 24 22 24 32 38 38 30 27 25 28 42 51 65 74 74 77 77 81 82 86 88 91 92 93 92 94 93 89 87 86 87 92 96 97 97 98 98 97 103 105 108 112 116 116 121 126 132
145 141 138 139 140 142 140 140 146 142 139 133 126 126 129 133 125 116 114 112 109 104 93 74 51 23 343 11 63 56 33 28 56 50 32 46 46 47 39 37 23 19 33 44 38 29 22 26 29 31 34 50 63 68 73 79 82 82 85 87 88 90 91 90 91 94 97 102 103 104 105 106 105 107 108 110 115 122 126 130 135 142 145 148 151 148 150
144 138 138 141 142 146 149 147 141 140 137 133 140 134 137 140 138 132 125 125 128 120 102 94 86 71 70 61 56 61 51 35 39 53 36 48 50 47 45 43 31 29 45 51 47 46 24 22 24 29 37 44 54 61 68 72 78 84 85 87 88 86 86 88 88 88 90 92 95 100 104 105 108 110 113 116 120 121 125 126 129 138 141 137 135 145 157
140 140 145 148 152 152 157 157 149 133 142 146 140 142 153 160 149 142 148 132 116 110 104 101 98 86 77 83 76 72 62 58 65 75 67 58 57 53 49 45 42 43 44 49 43 43 40 39 38 34 44 54 57 58 59 62 66 68 74 75 77 76 73 78 80 89 94 96 101 107 109 109 106 107 116 119 122 126 132 132 125 80 58 143 145 147 153
149 153 154 157 156 151 160 132 125 141 150 143 146 149 161 167 137 140 142 137 142 129 115 113 118 116 101 82 79 68 69 78 65 45 62 74 69 61 52 57 48 44 58 62 55 48 47 41 40 46 52 55 56 56 60 68 76 81 84 90 92 95 98 98 93 92 89 95 101 101 103 107 109 112 111 111 118 120 117 122 129 153 166 134 129 138 126
155 151 150 154 149 145 138 131 137 137 137 151 147 158 164 151 147 145 134 210 153 123 117 113 110 89 91 91 78 78 71 57 67 84 63 50 61 85 82 71 68 60 59 68 69 68 65 66 57 53 65 72 77 80 77 72 72 74 71 75 75 73 71 80 87 85 90 99 99 100 100 104 109 111 111 114 113 114 115 113 116 122 121 116 103 97 98